Location: Burland Observatory
(39.4088°N, 105.4217°W)
Time: 12:37:50
(UTC-07:00)

SR - Pass Details

Date: 10 December 2019
Orbit: 574 x 882 km, 66.7° (Epoch: 22 January)

Event Time Altitude Azimuth Distance (km) Brightness Sun altitude
Rises 19:59:41 0° 312° (NW) 3,448 ? -38.1°
Reaches altitude 10° 20:03:22 10° 290° (WNW) 2,467 ? -38.8°
Maximum altitude 20:06:19 15° 258° (WSW) 2,119 ? -39.4°
Drops below altitude 10° 20:09:11 10° 226° (SW) 2,372 ? -39.9°
Enters shadow 20:11:52 - 207° (SSW) 3,010 ? -40.4°
Sets 20:12:37 0° 203° (SSW) 3,230 - -40.6°
